Location: Unspecified
(0.0000°N, 0.0000°E)
Time: 21:10:13
(UTC+00:00)

Vanguard 2 Rocket - All Passes

Search period start: 29 May 2016 00:00
Search period end: 08 June 2016 00:00
Orbit: 554 x 3329 km, 32.9° (Epoch: 28 May)

Date Brightness Start Highest point End Pass type
(mag) Time Alt. Az. Time Alt. Az. Time Alt. Az.
29 May - 01:15:40 10° NNW 01:21:27 16° NNE 01:25:48 10° NE visible
29 May - 03:30:07 10° NW 03:37:02 56° NNE 03:41:27 10° ESE visible
29 May - 05:47:36 10° WSW 05:49:43 13° SW 05:51:42 10° S daylight
29 May - 12:33:54 10° S 12:40:48 19° SE 12:50:09 10° ESE daylight
29 May - 14:44:20 10° SW 14:57:00 63° SE 15:16:22 10° ENE daylight
29 May - 16:59:03 10° WSW 17:15:17 60° NW 17:35:22 10° NE daylight
29 May - 19:20:37 10° WNW 19:36:17 28° NNW 19:51:01 10° NNE visible
29 May - 21:51:20 10° NW 21:59:18 14° N 22:06:04 10° NNE visible
30 May - 00:14:35 10° NNW 00:20:36 15° N 00:25:19 10° NE visible
30 May - 02:29:48 10° NW 02:37:36 36° NNE 02:42:32 10° E visible
30 May - 04:46:04 10° W 04:50:56 30° SW 04:54:37 10° SSE visible
30 May - 13:45:41 10° SSW 13:56:15 44° SE 14:12:56 10° ENE daylight
30 May - 15:58:44 10° WSW 16:13:19 76° NW 16:33:54 10° NE daylight
30 May - 18:17:14 10° W 18:33:28 36° NNW 18:50:40 10° NNE visible
30 May - 20:44:56 10° NW 20:56:19 17° NNW 21:06:09 10° NNE visible
30 May - 23:12:18 10° NNW 23:19:04 14° N 23:24:32 10° NNE visible
31 May - 01:29:10 10° NNW 01:37:40 27° NNE 01:43:10 10° ENE visible
31 May - 03:45:09 10° WNW 03:52:11 67° SW 03:56:40 10° SE visible
31 May - 12:47:39 10° SSW 12:55:58 29° SE 13:08:33 10° E daylight
31 May - 14:59:09 10° SW 15:11:52 85° SE 15:31:49 10° NE daylight
31 May - 17:15:14 10° W 17:30:54 45° NNW 17:49:51 10° NE daylight
31 May - 19:39:17 10° WNW 19:53:06 22° NNW 20:05:54 10° NNE visible
31 May - 22:08:35 10° NNW 22:16:49 15° N 22:23:37 10° NNE visible
01 Jun - 00:28:07 10° NNW 00:37:09 22° NNE 00:43:20 10° ENE visible
01 Jun - 02:44:18 10° NW 02:53:07 69° NNE 02:58:16 10° ESE visible
01 Jun - 05:03:16 10° WSW 05:05:49 14° SW 05:08:03 10° S visible
01 Jun - 11:50:36 10° S 11:55:56 16° SE 12:02:58 10° ESE daylight
01 Jun - 14:00:13 10° SW 14:11:02 63° SE 14:29:03 10° ENE daylight
01 Jun - 16:14:22 10° WSW 16:28:41 57° NNW 16:48:32 10° NE daylight
01 Jun - 18:35:00 10° WNW 18:49:54 27° NNW 19:05:17 10° NNE visible
01 Jun - 21:03:37 10° NW 21:13:53 16° N 21:22:39 10° NNE visible
01 Jun - 23:26:26 10° NNW 23:36:00 19° NNE 23:42:56 10° NE visible
02 Jun - 01:43:18 10° NW 01:53:31 46° NNE 01:59:28 10° E visible
02 Jun - 04:01:01 10° WNW 04:07:02 31° SW 04:11:12 10° SSE visible
02 Jun - 13:01:50 10° SSW 13:10:46 43° SE 13:25:36 10° ENE daylight
02 Jun - 15:14:22 10° WSW 15:26:59 72° NW 15:46:43 10° NE daylight
02 Jun - 17:32:11 10° W 17:46:58 34° NNW 18:04:19 10° NNE daylight
02 Jun - 19:58:17 10° NW 20:10:30 18° N 20:21:36 10° NNE visible
02 Jun - 22:23:58 10° NNW 22:34:07 18° N 22:41:57 10° NE visible
03 Jun - 00:42:04 10° NW 00:53:21 34° NNE 01:00:12 10° E visible
03 Jun - 02:59:27 10° WNW 03:08:13 63° SW 03:13:21 10° SE night (unlit)
03 Jun - 12:04:05 10° SSW 12:10:58 26° SE 12:21:26 10° E daylight
03 Jun - 14:15:05 10° SW 14:25:54 88° SE 14:44:26 10° NE daylight
03 Jun - 16:30:37 10° W 16:44:27 42° NNW 17:02:59 10° NE daylight
03 Jun - 18:53:32 10° WNW 19:06:57 22° NNW 19:20:25 10° NNE visible
03 Jun - 21:20:37 10° NNW 21:31:30 17° N 21:40:28 10° NE visible
03 Jun - 23:40:29 10° NNW 23:52:32 28° NNE 00:00:24 10° ENE visible
04 Jun - 01:57:57 10° NW 02:08:58 79° NE 02:15:02 10° ESE night (unlit)
04 Jun - 04:18:14 10° WSW 04:21:50 15° SW 04:24:44 10° S visible
04 Jun - 11:07:37 10° SSE 11:11:21 14° SE 11:16:00 10° ESE daylight
04 Jun - 13:16:22 10° SW 13:25:30 64° SE 13:41:40 10° ENE daylight
04 Jun - 15:30:06 10° WSW 15:42:28 53° NNW 16:01:17 10° NE daylight
04 Jun - 17:49:57 10° WNW 18:03:38 26° NNW 18:19:02 10° NNE visible
04 Jun - 20:16:30 10° NW 20:28:13 18° N 20:38:36 10° NE visible
04 Jun - 22:38:30 10° NNW 22:51:03 24° NNE 22:59:55 10° ENE visible
05 Jun - 00:56:22 10° NW 01:09:08 55° NNE 01:16:15 10° ESE visible
05 Jun - 03:15:25 10° WNW 03:22:59 33° SW 03:27:51 10° SSE night (unlit)
05 Jun - 12:18:11 10° SSW 12:25:42 42° SE 12:38:26 10° ENE daylight
05 Jun - 14:30:22 10° WSW 14:41:06 67° NNW 14:59:16 10° NE daylight
05 Jun - 16:47:38 10° WNW 17:00:44 31° NNW 17:17:27 10° NNE daylight
05 Jun - 19:12:12 10° NW 19:24:33 19° N 19:36:31 10° NNE visible
05 Jun - 21:36:04 10° NNW 21:48:50 21° NNE 21:58:41 10° NE visible
05 Jun - 23:54:39 10° NW 00:08:40 42° NNE 00:16:59 10° E visible
06 Jun - 02:13:12 10° WNW 02:23:58 60° SW 02:30:01 10° SE night (unlit)
06 Jun - 11:20:40 10° S 11:26:18 24° SE 11:34:40 10° E daylight
06 Jun - 13:31:17 10° SW 13:40:26 88° NW 13:56:58 10° NE daylight
06 Jun - 15:46:27 10° W 15:58:25 38° NNW 16:15:41 10° NE daylight
06 Jun - 18:08:20 10° NW 18:20:52 21° N 18:34:22 10° NNE visible
06 Jun - 20:33:11 10° NNW 20:45:54 19° N 20:56:39 10° NE visible
06 Jun - 22:52:46 10° NW 23:07:32 34° NNE 23:17:06 10° E visible
07 Jun - 01:11:07 10° NW 01:24:29 87° NE 01:31:41 10° SE visible
07 Jun - 03:32:37 10° W 03:37:43 17° SW 03:41:33 10° S night (unlit)
07 Jun - 10:25:11 10° SSE 10:27:00 11° SE 10:29:03 10° SE daylight
07 Jun - 12:32:45 10° SW 12:40:25 65° SE 12:54:25 10° ENE daylight
07 Jun - 14:46:12 10° W 14:56:44 47° NNW 15:13:46 10° NE daylight
07 Jun - 17:05:25 10° WNW 17:17:34 24° NNW 17:32:14 10° NNE daylight
07 Jun - 19:29:58 10° NW 19:42:22 19° N 19:53:57 10° NE visible
07 Jun - 21:50:44 10° NNW 22:05:42 28° NNE 22:16:27 10° ENE visible
